Retour au catalogue

STARLINK-32864

ActifCommunicationsVLEO
NORAD 62862·PAYLOAD·🇺🇸 United States

Lancé Feb 1, 2025 depuis Vandenberg Space Force Base

Loading…

Prochains Passages (prochaines 24 heures)

TLE

FraisSource: CelesTrak SupGP

Époque: Sep 15, 2026, 03:52 UTC

1 62862C 25022J   26258.16159722  .00051727  00000+0  15284-2 0  2582
2 62862  53.1590 326.4355 0001256  90.1572 236.2189 15.34363495    10

Suivez STARLINK-32864 en temps réel avec AllMySat

Download on the App Store